STARLINK-31606 (59571 NORAD) Tracking and Keplerian Element Data

This shows tracking and keplerian element data for the satellite.

Feedback or suggestion? Click here.




ElementValue
Catalog59571
NameSTARLINK-31606
Epoch Orbit814
Epoch Day160.25001157
Epoch Year2024
RAAN53.5111
Inclination42.9997
Eccentricity0.0001688
Argument of Perigee286.474
Mean Anonmoly91.6654
Mean Motion15.40629195
Decay Rate0.00111689
L11 59571U 24076H 24160.25001157 .00111689 00000+0 26482-2 0 9999
L22 59571 42.9997 53.5111 0001688 286.4740 91.6654 15.40629195 8145



Live tracking and technical data element details for STARLINK-31606 (NORAD 59571). STARLINK-31606 can be tracked NOW for your location showing map with azimuth and elevation plus other details from your city location.







IsCatalogInMostPopularTable: catalog: 59571, numindb: 13
Update: records affected: 1



GetName: 59571 STARLINK-31606

Hit Count: updated at: Fri, 14 Jun 2024 19:28:42 GMT